Location: Unspecified
(47.5370°N, 14.6980°E)
Time: 14:34:20
(UTC+00:00)

Daily predictions for brighter satellites

Satellite Brightness Start Highest point End
(mag) Time Altitude Azimuth Time Altitude Azimuth Time Altitude Azimuth
Cosmos 773 Rocket 4.3 15:37:57 10° NNW 15:42:56 43° ENE 15:47:54 10° SE
Cosmos 1634 Rocket 4.0 15:37:39 10° S 15:43:46 67° E 15:49:54 10° NNE
IGS 5A 3.4 15:43:30 10° SSE 15:47:23 59° ENE 15:51:19 10° N
Cosmos 1544 Rocket 4.1 15:44:13 10° SSE 15:48:16 38° E 15:52:23 10° NNE
Cosmos 2084 4.2 15:45:02 10° WSW 15:49:05 45° NW 15:53:05 10° NNE
NOSS 2-2 (C) 2.7 15:47:32 10° SW 15:50:51 80° NW 15:53:50 10° NE
Cosmos 1733 2.6 15:50:20 10° NNE 15:51:49 21° ENE 15:53:17 10° SE
Cosmos 2263 Rocket 3.7 15:48:16 10° N 15:51:50 17° NE 15:55:24 10° ENE
ARIANE 5 R/B 3.0 15:47:44 10° SE 15:52:23 39° ENE 15:57:07 10° N
SMAP 3.3 15:48:45 10° SE 15:53:11 46° ENE 15:57:39 10° N
Cosmos 2084 Rocket 4.3 15:52:12 10° NNW 15:55:52 28° NE 15:59:32 10° E
Cosmos 2208 Rocket 4.1 15:51:27 10° NNW 15:56:32 55° ENE 16:01:37 10° SE
USA 290 3.2 15:54:34 10° N 15:57:24 26° ENE 16:00:12 10° ESE
CORIOLIS 4.2 15:52:35 10° SSE 15:57:48 58° ENE 16:03:03 10° N
Landsat 7 4.1 15:54:42 10° SE 15:59:03 41° ENE 16:03:25 10° N
Cosmos 2279 Rocket 4.0 15:53:47 10° S 15:59:52 62° E 16:06:01 10° NNE
UNK 4.0 15:57:51 10° NNE 16:02:18 49° E 16:06:43 10° S
Cosmos 1092 Rocket 4.4 15:56:53 10° NNW 16:03:00 69° W 16:09:05 10° S
Cosmos 2227 Rocket 3.1 15:58:25 10° N 16:03:13 28° NE 16:08:00 10° ESE
Cosmos 1356 Rocket 3.8 16:02:16 10° SSW 16:06:16 64° WNW 16:10:21 10° N
Cosmos 1455 Rocket 4.3 16:02:47 10° SSW 16:06:52 41° WNW 16:11:02 10° N
CZ-2D R/B 3.4 16:04:06 10° SE 16:06:56 32° ENE 16:09:48 10° N
Cosmos 2369 Rocket 4.0 16:02:29 10° W 16:07:00 24° NW 16:11:35 10° N
SJ-12 4.2 16:04:06 10° SE 16:07:35 37° ENE 16:11:07 10° N
Cosmos 1602 Rocket 3.9 16:04:44 10° N 16:08:57 42° ENE 16:13:04 10° SSE
GEOS 3 Rocket 3.7 16:04:25 10° NE 16:09:50 87° SE 16:15:13 10° SW
ATLAS CENTAUR R/B 0.6 16:08:06 10° NNW 16:11:20 60° NE 16:14:27 10° SE
CBERS-1 4.4 16:07:02 10° S 16:12:08 71° WSW 16:17:15 10° NNW
NOSS 3-2 (C) 3.7 16:10:00 10° S 16:14:35 39° ESE 16:19:08 13° NE
NOSS 3-2 (A) 3.1 16:10:17 10° SW 16:15:17 88° NW 16:21:12 11° NE
Radarsat 4.5 16:12:08 10° SSE 16:17:16 71° ENE 16:22:27 10° N
CZ-4C R/B 3.0 16:12:31 10° NW 16:19:11 58° NE 16:27:32 10° ESE
Cosmos 1743 2.2 16:16:40 10° N 16:19:53 58° E 16:23:05 10° SSE
BREEZE M DEB (TANK) 3.8 16:05:32 10° WNW 16:20:02 81° SSW 16:23:54 10° ESE
YAOGAN 1 3.7 16:17:34 10° ESE 16:20:43 20° ENE 16:23:51 10° NNE
Cosmos 1697 Rocket 3.5 16:16:11 10° SSE 16:20:56 29° ESE 16:24:38 15° NE
Thor Agena Rocket 3.8 16:20:37 10° S 16:25:50 74° WSW 16:31:02 10° NNW
IRS-1C 4.0 16:21:28 10° SSE 16:26:46 74° ENE 16:32:06 10° NNW
Gbstr 26 Del rocket 4.2 16:27:04 10° SSW 16:30:21 24° SE 16:32:03 18° ESE
Cosmos 2228 4.1 16:26:49 10° SSW 16:30:52 44° WNW 16:34:58 10° N
BlueWalker 3 2.5 16:28:09 10° WNW 16:31:43 55° SW 16:35:15 10° SE
Meteor 1-20 Rocket 4.1 16:26:51 10° N 16:32:18 66° ENE 16:37:44 10° SSE
Cosmos 1607 3.9 16:26:20 10° NW 16:32:34 76° NE 16:38:52 10° SE
BREEZE-M DEB (TANK) 3.4 16:32:05 10° W 16:35:05 70° N 16:41:11 17° E
Cosmos 2266 Rocket 3.9 16:30:09 10° N 16:36:19 70° ENE 16:42:21 10° SSE
MOS 1 Rocket 3.4 16:32:37 10° SSE 16:37:24 67° ENE 16:42:30 10° N
Cosmos 1503 Rocket 4.1 16:32:33 10° S 16:37:41 57° ESE 16:42:05 14° NNE
Meteor 1-28 Rocket 4.5 16:35:42 10° N 16:38:47 34° WNW 16:41:51 10° SW
Cosmos 1825 Rocket 3.7 16:38:48 10° N 16:43:02 47° ENE 16:47:11 10° SSE
IRIDIUM 104 4.3 16:39:04 10° N 16:44:20 86° E 16:49:33 10° S
Cosmos 1758 Rocket 4.4 16:40:30 10° NNW 16:44:42 52° W 16:48:51 10° S
SL-16 R/B 3.5 16:39:04 10° N 16:44:59 47° WNW 16:50:51 10° SW
Cosmos 1354 Rocket 4.3 16:40:14 10° S 16:45:15 47° ESE 16:48:38 20° NE
Cosmos 1461 2.9 16:42:29 10° SSW 16:46:16 53° ESE 16:47:52 31° ENE
Cosmos 2098 Rocket 3.4 16:42:59 10° SSW 16:46:54 65° WNW 16:51:34 10° N
BREEZE-M DEB (TANK) 1.2 16:47:01 10° SW 16:48:37 50° SSE 16:48:41 50° SE
Cosmos 1900 4.3 16:44:10 10° NNW 16:49:13 64° NE 16:54:08 10° SE
Spot 4 Rocket 4.3 16:45:25 10° SE 16:50:14 44° ENE 16:55:05 10° N
Lacrosse 5 rocket 2.6 16:47:48 10° WNW 16:51:00 26° NNW 16:52:27 20° NNE
Cosmos 1656 4.1 16:47:15 10° SW 16:52:48 63° WNW 16:58:14 11° NNE
NOSS 2-2 (D) 3.9 16:49:55 10° WSW 16:52:59 36° NW 16:54:22 23° N
IRIDIUM 114 4.4 16:48:13 10° N 16:53:28 80° W 16:58:40 10° S
Cosmos 2297 Rocket 2.6 16:50:59 10° NNW 16:56:37 67° WSW 17:02:13 10° SSE
Cosmos 1777 Rocket 4.0 16:53:02 10° SSW 16:58:18 85° WNW 17:02:47 15° NNE
Lacrosse 4 Rocket 3.8 17:01:41 10° WNW 17:03:50 14° NW 17:05:59 10° N
Cosmos 2151 3.7 16:59:52 10° NNW 17:03:56 53° W 17:07:58 10° S
NOSS 2-2 (E) 4.0 17:01:56 10° WSW 17:04:59 35° NW 17:05:54 28° N
Meteor 1-25 Rocket 4.3 16:59:09 10° NNW 17:05:01 88° WSW 17:10:47 10° S
CENTAUR R/B 3.9 17:02:34 10° W 17:08:02 33° NNW 17:13:07 16° NNE
Cosmos 1867 3.5 17:03:56 10° NW 17:09:26 84° NE 17:14:42 11° SE
Cosmos 2219 3.8 17:06:41 10° NNW 17:11:56 35° NE 17:12:15 35° ENE
USA 238 DEB 4.0 17:08:55 10° S 17:14:23 37° ESE 17:15:28 34° E
USA 238 4.0 17:09:01 10° S 17:14:30 36° ESE 17:15:33 34° E
Meteor 1-5 Rocket 3.9 17:10:53 10° N 17:16:14 77° ENE 17:21:40 10° SSE
Cosmos 1606 Rocket 3.6 17:12:20 10° SSW 17:16:44 80° W 17:20:08 17° N
Cosmos 1076 Rocket 3.3 17:13:45 10° N 17:18:03 70° E 17:22:21 10° SSE
USA 215 3.7 17:19:57 34° ENE 17:22:12 45° NNE 17:28:21 10° NW
Aureole 1 Rocket 4.4 17:18:26 10° SSE 17:20:28 25° SSE 17:20:28 25° SSE
Cosmos 1980 Rocket 2.5 17:17:35 10° S 17:22:50 41° ESE 17:22:55 41° ESE
Resurs 1-3 3.4 17:20:40 10° SSE 17:24:58 81° ENE 17:29:17 10° N
USA 81 3.9 17:23:30 10° N 17:28:46 68° E 17:34:00 10° SSE
Meteor 2-20 4.3 17:23:42 10° S 17:29:50 76° E 17:36:01 10° NNE
Cosmos 1844 Rocket 4.5 17:26:02 10° N 17:27:55 16° NNE 17:27:55 16° NNE
ARIANE 5 R/B 4.4 17:27:03 10° SSW 17:31:29 31° W 17:36:01 10° NNW
PSLV R/B 3.3 17:28:10 10° SSE 17:32:29 76° N 17:36:15 10° NNW
Cosmos 1655 Rocket 4.0 17:26:05 10° N 17:32:22 85° W 17:38:34 10° S
COSMO-SKYMED 1 2.3 17:34:13 78° SSE 17:34:13 78° SSE 17:38:05 10° SSW
NOAA 6 3.8 17:29:29 10° SSE 17:34:34 73° ENE 17:39:41 10° N
Cosmos 2084 Rocket 4.1 17:30:46 10° NW 17:34:52 51° SW 17:36:42 29° S
Cosmos 2263 Rocket 2.1 17:31:09 10° NNW 17:36:50 69° ENE 17:38:10 51° ESE
SL-19 R/B 4.1 17:31:39 10° SSE 17:36:59 89° WSW 17:42:37 10° NNW
CZ-2D R/B 4.0 17:33:04 10° S 17:37:13 59° WSW 17:41:22 10° NNW
SPOT 1/Viking Rocket 4.1 17:32:44 10° S 17:37:50 57° W 17:42:59 10° NNW
Cosmos 990 Rocket 4.0 17:32:59 10° SSW 17:38:06 77° WNW 17:40:00 40° NNE
Meteor 2-2 Rocket 4.3 17:35:03 10° S 17:39:52 52° ESE 17:39:52 52° ESE
Cosmos 1726 Rocket 4.1 17:38:09 10° SSW 17:42:44 60° WNW 17:45:09 27° N
SKYMED 2 4.2 17:41:22 29° N 17:43:21 54° WNW 17:47:35 10° SSW
ATLAS CENTAUR R/B 4.2 17:44:46 10° W 17:45:40 11° WSW 17:46:33 10° SW
Cosmos 2227 Rocket 2.6 17:42:05 10° NNW 17:47:39 61° WSW 17:53:11 10° S
Meteor 2-20 Rocket 4.3 17:45:54 10° S 17:52:12 80° E 17:54:27 42° NNE
YAOGAN 1 3.5 17:52:10 10° S 17:56:15 46° W 18:00:23 10° NNW
Cosmos 1697 Rocket 3.4 17:59:12 10° SW 18:04:37 49° NW 18:06:23 37° N
NOSS 3-2 (C) 4.0 18:00:18 10° WSW 18:05:17 44° NW 18:06:33 38° N
CZ-4C R/B 3.9 18:00:48 10° NW 18:07:40 46° WSW 18:15:53 10° S
Cosmos 1538 Rocket 4.3 18:05:07 10° NNW 18:10:21 65° WSW 18:10:38 64° SW
CENTAUR R/B 4.4 18:55:32 10° NW 19:00:13 23° N 19:00:13 23° N
USA 215 4.2 19:07:19 42° NW 19:07:19 42° NW 19:11:26 10° NW
Cosmos 1980 Rocket 4.0 19:01:38 10° WSW 19:04:42 28° W 19:04:42 28° W
Cosmos 2263 Rocket 4.4 19:16:04 10° NW 19:19:56 21° W 19:19:56 21° W
